DW0805 Ramloese DK current weather conditions

sailwx.info

Wind from 259 at 2 knots gusting 6

Air temperature 16.7° C
Dewpoint 14.5° C

Last reported at 2016-Aug-30 19:35 UTC.
Time now 2016-Aug-30 20:53 UTC

Location: N 56°01' E 012°05'.
View on Google Maps.

See reports from other nearby stations

  
Tides and Currents Weather Stations Pressure Air Temp Water Temp Dewpoint Dewpoint Depression Visibility Wind Speed Wind Dir Waves Ship Positions
date/time (UTC)wind fromknots sea level pressurealtimeterstation pressurevisibilityair tempwater tempwave heightnotes
2016-Aug-30 19:35 259 2 gusting 6 16.7
2016-Aug-30 19:25 259 2 gusting 6 17.2
2016-Aug-30 19:15 267 3 gusting 6 17.2
2016-Aug-30 19:05 265 3 gusting 6 17.2
2016-Aug-30 18:55 263 2 gusting 7 17.2
2016-Aug-30 18:35 264 4 gusting 10 17.8
2016-Aug-30 18:25 260 5 gusting 10 17.8
2016-Aug-30 18:15 263 4 gusting 7 17.8
2016-Aug-30 18:05 262 4 gusting 7 18.3
2016-Aug-30 17:55 262 2 gusting 8 18.3
2016-Aug-30 17:25 296 5 gusting 10 18.9
2016-Aug-30 17:15 257 5 gusting 10 19.4
2016-Aug-30 17:05 263 2 gusting 6 19.4
2016-Aug-30 16:55 268 4 gusting 10 20.0
2016-Aug-30 16:45 250 4 gusting 10 20.0
2016-Aug-30 16:35 251 4 gusting 8 20.0
2016-Aug-30 16:25 255 6 gusting 10 20.6
2016-Aug-30 16:15 263 4 gusting 10 21.1
2016-Aug-30 16:05 254 3 gusting 7 21.1
2016-Aug-30 15:35 317 2 gusting 10 20.0
2016-Aug-30 15:25 292 5 gusting 10 20.6
2016-Aug-30 15:15 285 5 gusting 11 21.1
2016-Aug-30 14:55 271 5 gusting 10 20.6
2016-Aug-30 14:35 263 5 gusting 11 20.0
2016-Aug-30 14:25 258 5 gusting 12 20.0
2016-Aug-30 14:15 286 6 gusting 13 20.0
2016-Aug-30 14:05 289 7 gusting 12 21.1
2016-Aug-30 13:55 304 7 gusting 13 20.6
2016-Aug-30 13:45 273 7 gusting 13 21.1
2016-Aug-30 13:35 272 6 gusting 13 20.6
2016-Aug-30 13:25 282 5 gusting 12 21.1
2016-Aug-30 13:15 294 6 gusting 11 21.7
2016-Aug-30 13:05 302 7 gusting 13 21.1
2016-Aug-30 12:55 288 6 gusting 14 21.1
2016-Aug-30 12:45 273 8 gusting 17 20.6
2016-Aug-30 12:25 315 9 gusting 17 20.6
2016-Aug-30 12:15 279 9 gusting 17 20.0
2016-Aug-30 12:05 292 10 gusting 15 20.0
2016-Aug-30 11:55 310 8 gusting 15 20.0
2016-Aug-30 11:45 294 8 gusting 14 20.0
2016-Aug-30 11:35 287 6 gusting 14 20.6
2016-Aug-30 11:25 283 7 gusting 13 20.0
2016-Aug-30 11:15 282 8 gusting 13 19.4
2016-Aug-30 10:55 299 6 gusting 17 18.9
2016-Aug-30 10:45 276 7 gusting 14 20.0
2016-Aug-30 10:35 291 9 gusting 14 18.9
2016-Aug-30 10:15 311 7 gusting 13 19.4
2016-Aug-30 10:05 330 6 gusting 13 18.9
2016-Aug-30 09:55 302 7 gusting 14 18.9
2016-Aug-30 09:45 298 5 gusting 13 18.3
2016-Aug-30 09:35 284 6 gusting 13 18.3
2016-Aug-30 09:25 317 7 gusting 12 18.3
2016-Aug-30 09:15 290 6 gusting 12 18.9
2016-Aug-30 09:05 335 7 gusting 13 18.3
2016-Aug-30 08:55 295 8 gusting 13 18.9
2016-Aug-30 08:45 321 6 gusting 13 18.9
2016-Aug-30 08:35 280 8 gusting 13 19.4
2016-Aug-30 08:15 291 5 gusting 14 18.3
2016-Aug-30 07:55 325 7 gusting 13 17.8
2016-Aug-30 07:45 304 9 gusting 13 17.8
2016-Aug-30 07:35 311 8 gusting 15 17.2
2016-Aug-30 07:15 310 7 gusting 14 17.2
2016-Aug-30 06:45 315 5 gusting 13 16.7
2016-Aug-30 06:25 323 5 gusting 13 16.1
2016-Aug-30 05:55 322 5 gusting 13 15.0
2016-Aug-30 05:45 299 6 gusting 13 15.6
2016-Aug-30 05:35 330 6 gusting 15 15.6
2016-Aug-30 05:25 322 6 gusting 13 15.6
2016-Aug-30 05:05 322 6 gusting 13 15.0
2016-Aug-30 04:55 311 6 gusting 13 15.0
2016-Aug-30 04:35 309 8 gusting 14 14.4
2016-Aug-30 04:15 296 9 gusting 17 14.4
2016-Aug-30 04:05 305 6 gusting 12 14.4
2016-Aug-30 03:55 312 6 gusting 15 14.4
2016-Aug-30 03:45 303 8 gusting 17 14.4
2016-Aug-30 03:35 298 7 gusting 14 14.4
2016-Aug-30 03:15 301 10 gusting 17 14.4
2016-Aug-30 03:05 304 8 gusting 17 14.4
2016-Aug-30 02:55 299 9 gusting 17 14.4
2016-Aug-30 02:45 299 9 gusting 14 14.4
2016-Aug-30 02:35 320 8 gusting 17 14.4
2016-Aug-30 02:25 313 9 gusting 15 14.4
2016-Aug-30 01:55 302 7 gusting 17 14.4
2016-Aug-30 01:35 310 8 gusting 17 14.4
2016-Aug-30 01:05 306 11 gusting 19 14.4
2016-Aug-30 00:55 313 12 gusting 20 14.4
2016-Aug-30 00:45 338 8 gusting 17 14.4
2016-Aug-30 00:35 302 6 gusting 18 14.4
2016-Aug-30 00:25 304 9 gusting 17 14.4
2016-Aug-30 00:15 323 8 gusting 19 14.4
2016-Aug-29 23:05 318 10 gusting 17 14.4
2016-Aug-29 22:55 304 9 gusting 19 15.0
2016-Aug-29 22:45 306 9 gusting 19 15.0
2016-Aug-29 22:15 308 9 gusting 17 15.0
2016-Aug-29 22:05 303 8 gusting 18 15.0
2016-Aug-29 21:55 302 11 gusting 18 15.0
2016-Aug-29 21:35 302 11 gusting 19 15.0
2016-Aug-29 21:05 314 9 gusting 19 15.0
2016-Aug-29 20:55 295 11 gusting 18 15.0
2016-Aug-29 20:45 303 12 gusting 18 15.0
2016-Aug-29 20:15 302 11 gusting 17 15.6
2016-Aug-29 20:05 309 10 gusting 17 15.6
2016-Aug-29 19:45 289 10 gusting 17 16.1
2016-Aug-29 19:35 320 10 gusting 18 16.1
2016-Aug-29 19:25 303 8 gusting 17 16.1
2016-Aug-29 19:15 321 8 gusting 17 16.1
2016-Aug-29 19:05 353 6 gusting 14 16.1
2016-Aug-29 18:55 310 6 gusting 17 16.1
2016-Aug-29 18:35 315 8 gusting 14 16.1
2016-Aug-29 18:25 295 11 gusting 15 16.1
2016-Aug-29 18:05 308 6 gusting 13 16.7
2016-Aug-29 17:45 330 8 gusting 14 16.7
2016-Aug-29 17:35 325 5 gusting 13 16.7
2016-Aug-29 17:15 314 7 gusting 15 17.2
2016-Aug-29 17:05 343 6 gusting 13 17.2
2016-Aug-29 16:55 329 8 gusting 15 17.2
2016-Aug-29 16:25 324 7 gusting 14 17.2
2016-Aug-29 16:05 295 8 gusting 19 17.8
2016-Aug-29 15:55 300 6 gusting 13 17.2
2016-Aug-29 15:35 306 9 gusting 14 17.2
2016-Aug-29 14:45 327 4 gusting 11 16.1
2016-Aug-29 14:15 325 4 gusting 6 15.6
2016-Aug-29 13:55 325 6 gusting 15 16.1
2016-Aug-29 13:35 321 6 gusting 10 17.8
2016-Aug-29 13:15 341 4 gusting 11 17.2
2016-Aug-29 13:05 325 5 gusting 14 17.2
2016-Aug-29 12:55 335 6 gusting 11 17.2
2016-Aug-29 12:46 312 6 gusting 13 17.2
2016-Aug-29 12:35 305 6 gusting 15 17.2
2016-Aug-29 12:15 331 7 gusting 13 17.2
2016-Aug-29 11:45 315 7 gusting 17 17.2
2016-Aug-29 11:25 003 8 gusting 17 16.7
2016-Aug-29 10:45 331 12 gusting 17 15.6
2016-Aug-29 10:25 306 10 gusting 17 16.1
2016-Aug-29 09:55 335 14 gusting 19 16.1
2016-Aug-29 09:45 333 10 gusting 19 16.1
2016-Aug-29 09:35 310 7 gusting 18 16.1
2016-Aug-29 09:25 327 12 gusting 18 16.1
2016-Aug-29 08:25 328 11 gusting 19 15.6
2016-Aug-29 07:45 329 8 gusting 17 16.1
2016-Aug-29 07:15 335 4 gusting 10 17.2
2016-Aug-29 06:25 335 6 gusting 12 17.2
2016-Aug-29 05:45 292 5 gusting 10 17.2
2016-Aug-29 05:35 319 5 gusting 10 17.2
2016-Aug-29 05:25 274 5 gusting 11 17.2
2016-Aug-29 03:35 240 5 gusting 10 17.8
2016-Aug-29 03:25 264 5 gusting 10 17.8
2016-Aug-29 02:55 252 4 gusting 8 17.2
2016-Aug-29 02:35 256 6 gusting 10 17.2
2016-Aug-29 02:25 256 6 gusting 13 17.2
2016-Aug-29 02:05 260 6 gusting 12 17.8
2016-Aug-29 01:35 250 5 gusting 10 17.8
2016-Aug-29 01:15 257 5 gusting 8 18.3
2016-Aug-29 00:55 241 2 gusting 6 18.3
2016-Aug-29 00:15 217 6 gusting 10 18.3
2016-Aug-28 23:55 229 2 gusting 6 18.3
2016-Aug-28 23:45 246 2 gusting 6 18.3
2016-Aug-28 23:25 242 2 gusting 10 18.3
2016-Aug-28 23:15 223 6 gusting 10 18.3
2016-Aug-28 22:55 212 4 gusting 8 18.3
2016-Aug-28 22:45 204 4 gusting 11 18.3
2016-Aug-28 22:25 190 4 gusting 13 18.3
2016-Aug-28 22:15 209 2 gusting 6 18.3
2016-Aug-28 22:05 167 2 gusting 7 18.9
2016-Aug-28 21:55 178 4 gusting 8 18.9
2016-Aug-28 21:45 174 3 gusting 6 18.9
2016-Aug-28 21:35 203 2 gusting 8 18.9
2016-Aug-28 21:25 202 4 gusting 8 18.9
2016-Aug-28 21:15 210 3 gusting 7 18.3
2016-Aug-28 20:55 188 2 gusting 10 18.9
2016-Aug-28 20:35 180 5 gusting 8 18.9
2016-Aug-28 20:15 196 2 gusting 6 18.9